Regional Weather Roundup
Issued by NWS Columbia, SC

Home | Current Version | Previous Version | Text Only | Print | Product List | Glossary On
Versions: 1 2 3 4 5 6 7 8 9 10 11 12 13 14 15 16 17 18 19 20 21 22 23 24 25 26 27 28 29 30 31 32 33 34 35 36 37 38 39 40 41 42 43 44 45 46 47 48 49 50
000
ASUS42 KCAE 231710
RWRCAE
REGIONAL WEATHER ROUNDUP
NATIONAL WEATHER SERVICE COLUMBIA SC
1200 PM EST THU FEB 23 2017

NOTE: "FAIR" INDICATES FEW OR NO CLOUDS BELOW 12,000 FEET WITH NO
SIGNIFICANT WEATHER AND/OR OBSTRUCTIONS TO VISIBILITY.

NOT ALL STATIONS ARE QUALITY CONTROLLED BY THE NATIONAL
WEATHER SERVICE. USE DATA WITH CAUTION...ESPECIALLY
DEWPOINT OBSERVATIONS.

SCZ001>056-GAZ040-063>065-077-231800-
...UPSTATE SOUTH CAROLINA...

CITY           SKY/WX    TMP DP  RH WIND       PRES   REMARKS
ANDERSON       MOSUNNY   70  55  59 CALM      29.91F
LIBERTY        MOSUNNY   69  54  58 SE8       29.92S
SPARTANBURG    MOSUNNY   66  52  59 CALM      29.92F
CLEMSON        MOSUNNY   70  55  59 E3        29.93F
GREENVILLE     MOSUNNY   69  55  60 E5        29.93F
GREENWOOD      MOSUNNY   69  53  56 VRB6      29.92F
GREER          MOSUNNY   67  54  63 SE7       29.91F
ROCK HILL      SUNNY     71  54  54 VRB5      29.93F
CHESTER        SUNNY     70  52  52 NE5       29.93F
LAURENS        MOSUNNY   70  54  56 E8        29.92F


...CENTRAL SOUTH CAROLINA...

CITY           SKY/WX    TMP DP  RH WIND       PRES   REMARKS
COLUMBIA APT   MOSUNNY   72  54  53 E8        29.90F
COLUMBIA OWENS PTSUNNY   74  54  49 E7        29.91F
MCENTIRE ANGB  MOSUNNY   71  52  50 NE8       29.90F
ORANGEBURG     MOSUNNY   71  55  56 NE8       29.89F
SUMTER SHAW    MOSUNNY   75  55  50 E9        29.88F
AIKEN          PTSUNNY   72  54  53 NE10      29.93F
BARNWELL       HAZE      75  57  53 NE12G18   29.88F VSB 3/4
MANNING        PTSUNNY   72  34  25 MISG      29.89F
CAMDEN         FAIR      72  52  49 E7        29.92F
LANCASTER      MOSUNNY   72  50  46 E8        29.93F
WINNSBORO      MOSUNNY   72  52  49 NE7       29.92F


...EASTERN AND COASTAL SOUTH CAROLINA...

CITY           SKY/WX    TMP DP  RH WIND       PRES   REMARKS
MYRTLE BEACH   PTSUNNY  N/A N/A N/A E14       29.92F
N MYRTLE BCH   MOSUNNY   73  57  57 E12G22    29.91F
CONWAY         PTSUNNY   73  57  56 NE10      29.91F HAZE
MARION         CLOUDY    70  55  60 E9        29.92F
HARTSVILLE     FAIR      70  54  56 NE6       29.91F
FLORENCE       PTSUNNY   73  56  54 E8G17     29.91F
DARLINGTON     MOSUNNY   73  57  57 E8        29.92F
CHARLESTON APT PTSUNNY   76  58  53 E15G21    29.86F
MOUNT PLEASANT FAIR      75  61  60 NE6G17    29.87F
WALTERBORO     MOSUNNY   73  57  56 E15G21    29.88F
BEAUFORT       MOSUNNY   75  62  64 E10       29.85F


...EASTERN GEORGIA...

CITY           SKY/WX    TMP DP  RH WIND       PRES   REMARKS
AUGUSTA BUSH F MOSUNNY   76  55  48 E10       29.88F
AUGUSTA DANIEL SUNNY     74  53  48 E10       29.89F
THOMSON        MOSUNNY   73  58  59 E5        29.94F
WASHINGTON     FAIR      72  59  64 E5        29.90F
CLAXTON        CLOUDY   N/A N/A N/A NE12      29.85F
SYLVANIA       PTSUNNY  N/A N/A N/A E13       29.87F
STATESBORO     MOSUNNY   74  62  66 E8        29.86F
SAVANNAH       PTSUNNY   74  60  61 NE14      29.84F


...SOUTHERN NORTH CAROLINA...

CITY           SKY/WX    TMP DP  RH WIND       PRES   REMARKS
CHARLOTTE      MOSUNNY   71  52  50 S7        29.93F
MONROE         MOSUNNY   69  50  50 VRB6      29.93F
WADESBORO      MOSUNNY   72  51  48 S5        29.93F
ROCKINGHAM     MOSUNNY   71  55  56 E3        29.93F
RUTHERFORDTON  MOSUNNY   68  55  62 S7        29.94F
ASHEVILLE      SUNNY     66  49  54 S6        29.94F

$$



USA.gov is the U.S. government's official web portal to all federal, state and local government web resources and services.